{"data":{"norad_id":45442,"intl_designator":"2020-020U","name":"ONEWEB-0098","alt_names":[],"object_type":"PAYLOAD","status":"ACTIVE","operator":null,"country":"UK","launch_date":"2020-03-21","launch_site_code":"TYMSC","launch_vehicle":null,"mission":null,"orbit_class":"UNKNOWN","rcs_meters":null,"size_class":null,"mass_kg":null,"dimensions":null,"purposes":["comms"],"wikipedia_slug":null,"has_3d_model":false,"image_url":null,"decayed_at":null,"tle_current":{"epoch":"2026-05-25T01:51:00.000576Z","epoch_age_seconds":71529,"freshness":"FRESH","line1":"1 45442U 20020U   26145.07708334 -.00000506  00000+0 -14633-2 0  9994","line2":"2 45442  87.8913  25.6651 0001710  80.7556 279.3765 13.11415282299616","mean_motion":13.11415282,"eccentricity":0.000171,"inclination_deg":87.8913,"raan_deg":25.6651,"arg_perigee_deg":80.7556,"mean_anomaly_deg":279.3765,"bstar":-0.0014633,"rev_number":29961,"period_min":109.80503428356,"perigee_km":1216.3902335898,"apogee_km":1218.9880061228,"semimajor_km":7595.8261198563,"source":"CELESTRAK","updated_at":"2026-05-25T13:38:22.344661Z"}}}